CAPE
0 0 0 0 0 0 0 0 0 0 0 0 0 0 0 0 0 0 0 0 0 0 0 0 0 0 0 0 0 0 0 0 0 0 0 0 0 0 0 0 0 0 0 0
0 0 0 0 0 0 0 0 0 0 0 0 0 0 0 0 0 0 0 0 0 0 0 0 0 0 0 0 0 0 0 0 0 0 0 0 0 0 0 0 0 0 0 0
0 0 0 0 0 0 0 0 0 0 0 0 0 0 0 0 0 0 0 0 0 0 0 0 0 0 0 0 0 0 0 0 0 0 0 0 0 0 0 0 0 0 0 0
0 0 0 0 0 0 0 0 0 0 0 0 0 0 0 0 0 0 0 0 0 0 0 0 0 0 0 0 0 0 0 0 0 0 0 0 0 0 0 0 0 0 0 0
0 0 0 0 0 0 0 0 0 0 0 0 0 0 0 0 0 0 0 0 0 0 0 0 0 0 0 0 0 0 0 0 0 0 0 0 0 0 0 0 0 0 0 0
0 0 0 0 0 0 0 0 0 0 0 0 0 0 0 0 0 0 0 0 0 0 0 0 0 0 0 0 0 0 0 0 0 0 0 0 0 0 0 0 0 0 0 0
0 0 0 0 0 0 0 0 0 0 0 0 0 0 0 0 0 0 0 0 0 0 0 0 0 0 0 0 0 0 0 0 0 0 0 0 0 0 0 0 0 0 0 0
0 0 0 0 0 0 0 0 0 0 0 0 0 0 0 0 0 0 0 0 0 0 0 0 0 0 0 0 0 0 0 0 0 0 0 0 0 0 0 0 0 0 0 0
0 0 0 0 0 0 0 0 0 0 0 0 0 0 0 0 0 0 0 0 0 0 0 0 0 0 0 0 0 0 0 0 0 0 0 0 0 0 0 0 0 0 0 0
0 0 0 0 0 0 0 0 0 0 0 0 0 0 0 0 0 0 0 0 0 0 0 0 0 0 0 0 0 0 0 0 0 0 0 0 0 0 0 0 0 1 1 0
0 0 0 0 0 0 0 0 0 0 0 0 0 0 0 0 0 0 0 0 0 0 0 0 0 0 0 0 0 0 0 0 0 0 0 0 0 0 0 1 0 0 0 0
0 0 0 0 0 0 0 0 0 0 0 0 0 0 0 0 0 0 0 0 0 0 0 0 0 0 0 0 0 0 0 0 0 0 0 0 0 0 0 0 0 0 0 3
0 0 0 0 0 0 0 0 0 0 0 0 0 0 0 0 0 0 0 0 0 0 0 0 0 0 0 0 0 0 0 0 0 0 0 0 0 0 0 0 0 1 2 1
0 0 0 0 0 0 0 0 0 0 0 0 0 0 0 0 0 0 0 0 0 0 0 0 0 1 0 0 2 1 0 0 0 0 0 0 0 0 0 1 0 0 0 0
0 0 0 0 0 0 0 0 0 0 0 0 0 0 0 0 0 0 0 0 0 0 0 0 0 0 0 0 0 0 0 0 0 0 0 1 3 2 0 0 0 0 0 0
0 0 0 0 0 0 0 0 0 0 0 0 0 0 0 0 0 0 0 0 0 0 0 0 0 0 6 2 0 0 0 0 1 6 10 0 1 0 1 0 0 0 0 0
0 3 2 2 3 2 6 1 0 0 0 0 0 0 0 0 0 0 0 0 0 0 0 3 10 2 0 0 1 0 0 0 0 0 0 1 2 1 0 0 0 0 0 0
0 0 0 0 0 1 1 0 0 0 0 0 0 0 0 0 0 0 1 0 0 0 1 0 0 0 0 1 0 0 0 0 0 0 0 0 0 0 0 0 0 0 0 0
0 0 2 0 0 0 0 1 0 0 0 1 0 0 0 0 0 0 0 0 0 0 0 0 0 0 3 0 0 0 0 0 0 0 0 0 0 0 0 0 0 0 0 0
2 0 0 0 0 0 0 0 0 0 0 0 0 0 0 0 0 0 0 0 0 0 0 0 0 0 0 0 0 0 0 0 0 0 0 0 0 0 0 0 0 0 0 0
0 0 0 0 0 0 0 0 0 0 0 0 0 0 0 0 0 1 0 0 0 0 0 1 0 0 0 0 0 0 0 0 0 0 0 0 0 0 0 0 0 0 0 0
1 0 0 0 1 1 0 0 0 0 0 0 0 0 1 0 0 0 0 0 0 0 0 0 0 0 0 0 0 0 0 0 0 0 0 0 0 0 0 0 0 0 0 0
0 1 0 0 0 1 0 0 0 0 0 0 0 0 0 0 0 0 0 0 0 0 0 0 0 0 0 0 0 0 0 0 0 0 0 0 0 0 0 0 0 0 0 0
0 0 0 0 0 0 0 0 0 0 0 0 0 0 0 0 0 0 0 0 0 0 0 0 0 0 0 0 0 0 0 0 0 0 0 0 0 0 0 0 0 0 0 0
0 0 2 0 0 0 0 0 0 0 0 0 0 0 0 0 0 0 0 0 0 0 0 0 0 0 0 0 0 0 0 0 0 0 0 0 0 0 0 0 0 0 0 0
0 0 0 0 0 0 0 0 0 0 0 0 0 0 0 0 0 0 0 0 0 0 0 0 0 0 0 0 0 0 0 0 0 0 0 0 0 0 0 0 0 0 0 0
0 0 0 0 0 0 0 0 0 0 0 0 0 0 0 0 0 0 0 0 0 0 0 0 0 0 0 0 0 0 0 0 0 0 0 0 0 0 0 0 0 0 0 0
CIN
0 0 0 0 0 0 0 0 0 0 0 0 0 0 0 0 0 0 0 0 0 0 0 0 0 0 0 0 0 0 0 0 0 0 0 0 0 0 0 0 0 0 0 0
0 0 0 0 0 0 0 0 0 0 0 0 0 0 0 0 0 0 0 0 0 0 0 0 0 0 0 0 0 0 0 0 0 0 0 0 0 0 0 0 0 0 0 0
0 0 0 0 0 0 0 0 0 0 0 0 0 0 0 0 0 0 0 0 0 0 0 0 0 0 0 0 0 0 0 0 0 0 0 0 0 0 0 0 0 0 0 0
0 0 0 0 0 0 0 0 0 0 0 0 0 0 0 0 0 0 0 0 0 0 0 0 0 0 0 0 0 0 0 0 0 0 0 0 0 0 0 0 0 0 0 0
0 0 0 0 0 0 0 0 0 0 0 0 0 0 0 0 0 0 0 0 0 0 0 0 0 0 0 0 0 0 0 0 0 0 0 0 0 0 0 0 0 0 0 0
0 0 0 0 0 0 0 0 0 0 0 0 0 0 0 0 0 0 0 0 0 0 0 0 0 0 0 0 0 0 0 0 0 0 0 0 0 0 0 0 0 0 0 0
0 0 0 0 0 0 0 0 0 0 0 0 0 0 0 0 0 0 0 0 0 0 0 0 0 0 0 0 0 0 0 0 0 0 0 0 0 0 0 0 0 0 0 0
0 0 0 0 0 0 0 0 0 0 0 0 0 0 0 0 0 0 0 0 0 0 0 0 0 0 0 0 0 0 0 0 0 0 0 0 0 0 0 0 0 0 0 0
0 0 0 0 0 0 0 0 0 0 0 0 0 0 0 0 0 0 0 0 0 0 0 0 0 0 0 0 0 0 0 0 0 0 0 -1 0 0 0 0 0 0 0 0
0 0 0 0 0 0 0 0 0 0 0 0 0 0 0 0 0 0 0 0 0 0 0 0 0 0 0 0 0 0 0 0 0 0 0 0 0 0 0 -2 -0 0 -0 0
0 0 0 0 0 0 0 0 0 0 0 0 0 0 0 0 0 0 0 0 0 0 0 0 0 0 0 0 0 0 0 0 0 0 0 0 0 0 0 -2 0 0 0 0
0 0 0 0 0 0 0 0 0 0 0 0 0 0 0 0 0 0 0 0 0 0 0 0 0 0 0 0 0 0 0 0 0 0 0 0 0 0 0 0 0 0 0 0
0 0 0 0 0 0 0 0 0 0 0 0 0 0 0 0 0 0 0 0 0 0 0 0 0 0 0 0 -0 0 0 0 -8 0 0 0 0 0 0 0 0 0 0 0
0 0 0 0 0 0 0 0 0 0 0 0 0 0 0 0 0 0 0 0 0 0 0 0 0 -9 0 -8 -4 -1 0 0 0 0 0 0 0 0 0 0 0 0 0 0
0 0 0 0 0 0 0 0 0 0 0 0 0 0 0 0 0 0 0 0 0 0 0 -1 -4 0 0 0 0 -1 0 0 0 0 0 -1 -2 0 0 0 0 0 0 0
-43 -34 0 0 0 0 -31 0 0 0 0 0 0 0 0 0 0 0 0 0 0 0 -5 0 -7 0 -8 -2 0 0 0 0 -2 -2 -14 -1 0 -0 0 0 0 0 0 0
-35 -43 -44 -46 -54 -40 -9 -9 0 0 0 0 0 0 0 0 0 0 0 0 -0 -2 -4 -10 -12 -4 0 -0 0 0 0 0 0 0 0 0 0 0 0 0 0 0 0 0
-6 0 0 0 0 0 -6 0 0 0 -1 0 -0 0 0 0 0 0 0 0 0 0 -5 0 0 0 0 -0 0 0 0 0 0 0 0 0 0 0 0 0 0 0 0 0
0 0 0 0 0 0 0 0 0 0 0 -1 0 -1 0 0 0 0 0 0 0 0 0 0 0 -2 -4 0 0 0 0 0 0 0 0 0 0 0 0 0 0 0 0 0
0 0 0 0 0 0 0 0 0 0 0 0 0 0 0 0 0 0 0 0 0 0 0 0 0 0 0 0 0 0 0 0 0 0 0 0 0 0 0 0 0 0 0 0
0 0 0 0 0 0 0 0 0 0 0 0 0 0 0 0 0 0 0 -3 0 0 0 0 0 0 0 0 0 0 0 0 0 0 0 0 0 0 0 0 0 0 0 0
-1 0 -1 0 -0 0 0 0 0 0 0 0 0 0 0 0 0 0 0 0 0 0 0 0 0 0 0 0 0 0 0 0 0 0 0 0 0 0 0 0 0 0 0 0
0 0 0 0 0 -0 -0 0 0 0 0 0 0 0 0 0 0 0 0 0 0 0 0 0 0 0 0 0 0 0 0 0 0 0 0 0 0 0 0 0 0 0 0 0
0 0 0 0 0 0 0 0 0 0 0 0 0 0 0 0 0 0 0 0 0 0 0 0 0 0 0 0 0 0 0 0 0 0 0 0 0 0 0 0 0 0 0 0
0 0 -6 0 0 0 0 0 0 0 0 0 0 0 0 0 0 0 0 0 0 0 0 0 0 0 0 0 0 0 0 0 0 0 0 0 0 0 0 0 0 0 0 0
0 0 0 0 0 0 0 0 0 0 0 0 0 0 0 0 0 0 0 0 0 0 0 0 0 0 0 0 0 0 0 0 0 0 0 0 0 0 0 0 0 0 0 0
0 0 0 0 0 0 0 0 0 0 0 0 0 0 0 0 0 0 0 0 0 0 0 0 0 0 0 0 0 0 0 0 0 0 0 0 0 0 0 0 0 0 0 0
Wind_Speed
14 14 14 14 14 14 12 11 12 12 9 10 12 10 8 9 10 12 12 12 13 13 14 15 15 14 15 18 19 19 21 19 20 20 17 19 18 18 20 22 23 23 25 27
15 15 14 15 15 14 12 12 11 12 11 12 11 11 11 11 11 12 11 12 12 13 13 14 14 15 15 18 19 19 20 21 25 21 20 19 20 19 22 21 22 22 26 29
16 16 15 15 15 13 12 12 13 14 12 12 6 6 10 8 11 11 11 11 12 13 14 16 13 14 15 17 18 20 20 20 21 22 22 22 24 21 19 21 24 25 22 27
17 16 16 16 16 14 13 13 13 13 11 10 5 8 8 6 9 11 11 12 12 11 12 14 14 14 15 17 18 19 20 22 21 21 21 23 23 24 21 20 19 23 24 27
17 17 16 17 16 15 13 12 12 11 9 8 5 10 7 6 9 10 10 9 11 13 13 14 14 14 15 16 18 20 22 23 25 29 26 25 27 27 23 16 18 21 21 24
18 17 16 17 16 15 14 13 12 11 11 8 8 8 6 6 7 12 11 9 11 13 12 13 15 14 14 15 18 21 22 23 27 31 29 35 33 21 20 22 22 25 29 33
18 17 16 16 16 14 14 13 12 11 10 9 8 7 8 5 10 9 9 11 12 12 13 14 16 17 17 17 18 17 21 24 26 31 33 32 24 23 25 26 28 26 29 31
18 17 16 16 15 14 13 13 14 13 11 11 9 7 7 7 10 10 9 12 13 11 14 17 20 20 20 19 22 20 19 22 29 31 29 32 30 23 24 27 32 28 29 30
18 17 16 15 15 13 11 12 13 13 11 15 11 9 7 7 8 10 11 12 13 14 16 18 21 24 23 23 24 23 23 22 26 30 32 32 28 26 25 26 36 24 30 38
19 17 16 15 15 13 12 14 14 14 14 13 11 12 8 10 10 10 11 10 13 16 17 20 22 25 21 28 28 29 28 28 29 28 31 30 26 24 23 33 38 32 35 40
19 17 16 15 15 15 14 14 15 15 15 14 14 13 12 12 12 11 10 12 15 15 18 21 23 24 23 26 25 27 28 30 31 27 27 32 20 26 31 34 37 43 38 38
19 18 16 16 16 16 14 16 15 15 15 15 14 15 14 14 12 11 9 14 13 13 18 19 21 25 25 27 33 22 27 21 27 22 22 25 27 32 32 36 40 38 35 35
21 19 17 16 16 16 14 14 16 15 16 17 17 17 16 15 14 13 14 16 14 16 18 20 23 28 25 28 26 24 23 20 24 26 24 26 33 33 34 31 31 33 30 30
21 20 18 17 16 16 15 16 15 15 15 19 19 18 17 17 15 14 15 14 15 17 19 23 25 29 21 25 25 25 23 24 23 27 30 31 30 31 31 29 31 29 29 30
21 20 18 16 15 15 15 16 16 15 18 19 19 21 19 19 17 13 13 13 17 21 25 27 28 25 25 26 27 26 19 21 27 34 32 36 39 28 30 27 28 29 31 33
21 19 18 15 14 14 17 22 20 18 17 21 26 22 22 21 20 18 19 19 22 23 25 27 24 22 23 29 27 21 19 20 28 34 33 29 26 28 24 28 31 33 34 37
22 20 19 16 14 17 20 21 19 14 16 21 26 26 22 21 21 22 24 23 24 24 26 25 24 23 21 23 30 28 33 31 30 27 24 31 27 26 27 31 34 36 37 37
21 20 18 16 14 16 22 20 17 15 16 20 26 27 25 19 21 24 22 22 22 24 25 24 24 23 21 28 27 30 29 26 28 28 29 24 23 27 31 34 38 41 42 41
20 15 12 18 22 23 22 15 14 17 18 25 25 26 29 21 22 22 22 20 25 25 25 24 23 24 26 26 30 31 29 26 24 25 25 27 30 33 35 38 41 44 46 45
15 18 22 24 23 12 12 18 20 23 24 24 25 23 27 24 24 24 22 23 24 29 26 25 28 31 26 25 22 22 22 21 22 28 32 33 35 37 40 41 41 43 44 46
20 23 23 16 12 16 19 21 21 23 26 24 25 24 25 21 23 23 22 25 25 33 30 28 31 32 24 17 19 20 22 23 24 26 29 31 35 40 43 44 44 45 45 45
17 13 11 12 18 20 21 22 22 24 24 20 21 21 20 20 18 21 23 27 26 33 26 29 34 29 18 18 20 21 22 24 27 29 32 35 38 39 41 43 44 44 45 45
13 16 17 18 20 23 25 25 24 23 19 18 18 20 21 21 21 22 23 28 30 25 30 33 32 22 18 19 20 22 24 28 31 34 36 38 40 41 40 42 42 43 44 43
18 19 21 23 22 24 24 22 19 18 18 16 18 21 22 21 22 22 27 26 25 32 35 35 26 19 19 19 21 24 31 34 36 39 39 40 40 40 40 40 40 41 43 42
18 19 25 24 21 18 17 17 17 17 14 16 17 20 21 21 24 23 24 27 30 30 32 27 19 19 23 25 26 31 36 38 40 38 38 39 40 40 41 40 40 39 39 39
17 18 19 17 17 18 18 18 18 16 14 16 19 22 24 25 24 26 27 29 32 30 26 19 20 23 26 30 33 35 37 38 38 37 37 37 36 38 39 39 39 37 37 38
20 20 18 18 19 18 19 19 17 13 17 22 21 25 25 22 26 29 25 31 28 20 20 21 23 27 33 34 36 36 36 36 35 35 34 33 33 34 38 40 39 37 36 35
Wind_Direction
279 286 290 293 287 266 269 281 282 299 314 295 289 297 323 324 319 318 324 357 39 48 40 37 43 50 44 13 19 20 13 11 2 356 4 0 355 344 340 335 331 331 327 329
277 285 289 293 291 271 273 277 285 293 290 280 279 281 287 305 310 314 343 5 6 20 32 30 34 32 25 15 25 23 18 6 353 354 355 352 345 342 338 336 335 327 325 327
275 281 286 291 293 279 276 271 268 275 285 287 301 303 293 317 322 337 354 19 17 28 15 5 27 27 26 18 20 15 15 7 359 348 342 340 332 332 332 329 326 324 317 321
271 277 283 286 286 275 268 270 273 274 282 289 310 303 307 337 331 344 352 1 10 18 19 10 9 16 15 14 19 18 11 359 356 347 341 336 332 325 323 317 316 321 325 324
268 273 281 282 278 269 269 272 277 285 294 295 316 305 323 340 346 351 357 19 18 12 13 10 5 9 6 5 8 4 1 355 351 343 342 340 334 327 321 322 324 322 322 320
265 271 279 281 279 268 268 270 278 283 281 294 304 315 346 7 9 343 359 40 15 6 13 19 10 11 10 3 357 356 354 353 347 341 341 332 330 337 339 333 331 328 327 329
263 270 278 283 286 275 272 273 277 284 285 295 313 334 333 13 338 358 11 7 359 14 18 12 1 357 356 353 351 354 351 348 345 338 338 334 346 337 327 324 324 327 326 329
263 270 278 286 291 284 277 278 279 282 286 286 303 326 336 351 343 348 357 350 0 18 2 351 346 346 347 351 351 353 350 346 340 336 337 334 339 343 338 332 326 330 331 334
261 269 277 286 291 290 291 289 293 291 289 280 294 308 322 333 338 342 345 350 349 351 347 344 337 335 339 340 341 351 348 345 336 332 329 332 342 343 344 340 326 343 339 331
259 267 276 285 291 296 290 288 294 295 291 295 299 299 307 320 327 336 337 342 340 340 338 333 331 331 340 331 332 334 336 335 328 326 325 326 335 342 347 332 330 336 333 330
257 264 274 283 289 292 289 290 299 295 296 298 300 305 309 312 314 316 335 338 331 333 330 331 333 331 332 333 332 334 333 331 329 332 330 331 352 343 333 332 329 327 328 330
254 262 271 280 287 290 291 285 298 306 302 304 306 306 313 313 318 320 321 326 335 337 334 333 338 330 332 328 323 335 329 329 327 325 324 329 330 328 327 329 327 331 333 338
252 258 267 277 286 296 295 291 294 301 298 302 300 300 307 311 314 322 315 317 324 324 331 331 329 323 329 322 324 328 335 331 323 324 326 324 327 325 332 335 335 340 342 340
252 257 263 272 281 290 293 291 297 302 303 294 297 308 309 309 309 312 317 320 328 329 328 322 321 321 325 321 323 322 325 331 326 322 324 325 332 334 335 338 338 345 343 341
251 256 262 269 278 287 294 293 295 300 295 296 302 304 306 308 312 314 314 315 314 316 317 316 316 321 319 319 320 316 328 325 324 324 327 324 328 338 338 341 344 343 339 337
249 254 259 266 275 284 287 284 288 293 300 297 293 303 303 306 309 306 306 304 307 310 315 316 317 319 318 318 320 331 325 324 322 321 330 334 338 340 347 341 341 340 338 337
247 251 256 262 268 276 278 284 296 292 301 298 296 297 304 308 308 307 306 307 307 309 312 309 312 316 317 317 315 325 326 330 332 335 338 334 337 337 341 339 337 336 334 334
243 248 254 262 269 278 277 286 295 297 300 300 293 294 299 311 309 309 317 311 311 313 311 314 313 320 317 315 322 327 330 336 338 342 344 344 344 341 337 335 334 333 332 332
237 241 247 268 272 273 277 288 291 292 293 290 291 291 296 310 311 316 317 314 308 315 308 311 316 314 313 320 322 326 331 329 336 343 346 343 338 336 334 334 333 331 331 332
214 248 257 264 274 285 282 281 279 283 291 292 286 296 296 306 309 311 313 313 309 307 310 315 309 309 319 325 333 340 345 345 341 335 335 337 335 334 333 333 334 333 332 331
245 252 258 272 280 279 280 278 276 281 284 287 289 293 298 313 306 307 314 311 314 307 310 311 312 313 321 332 337 341 344 344 344 343 340 338 336 333 332 333 334 333 333 333
249 247 266 268 273 279 273 272 278 281 280 290 293 298 306 314 321 313 314 308 311 307 320 314 313 321 327 331 335 338 340 342 340 338 336 335 335 335 333 333 333 334 334 334
263 265 264 262 271 267 266 270 277 278 283 292 297 299 307 313 315 312 312 307 305 317 311 310 316 323 326 330 335 338 339 337 335 334 334 334 333 333 334 334 335 335 335 337
265 264 260 265 268 268 275 276 281 288 291 293 297 301 306 311 309 310 307 310 313 307 307 310 319 322 326 333 334 335 331 331 331 331 331 332 333 333 334 335 337 337 337 338
269 271 266 269 274 280 284 288 292 298 301 299 302 307 308 309 306 311 310 309 306 309 311 318 324 327 328 329 328 327 327 328 329 330 331 332 333 334 335 338 339 340 340 340
276 276 275 281 279 280 284 289 292 299 299 306 307 303 303 301 305 304 301 304 304 311 315 323 326 327 328 326 325 325 326 327 329 330 331 333 335 335 337 339 341 343 343 343
276 277 284 285 288 282 285 290 293 300 298 297 304 299 299 308 304 302 305 304 311 318 323 325 325 324 323 324 325 326 328 329 331 332 334 335 337 339 339 339 344 345 345 346